Regional Weather Roundup
Issued by NWS

Home | Current Version | Previous Version | Graphics & Text | Print | Product List | Glossary On
Versions: 1 2 3 4 5 6 7 8 9 10 11 12 13 14 15 16 17 18 19 20 21 22 23 24 25 26 27 28 29 30 31 32 33 34 35 36 37 38 39 40 41 42 43 44 45 46 47 48 49 50
000
ASUS43 KBIS 192020
RWRND

NORTH DAKOTA REGIONAL WEATHER ROUNDUP
NATIONAL WEATHER SERVICE BISMARCK ND
200 PM CST FRI DEC 19 2014

NOTE: "FAIR" INDICATES FEW OR NO CLOUDS BELOW 12,000 FEET WITH NO
SIGNIFICANT WEATHER AND/OR OBSTRUCTIONS TO VISIBILITY.


NDZ001>003-009>011-017-192100-
NORTHWEST NORTH DAKOTA

CITY           SKY/WX    TMP DP  RH WIND       PRES   REMARKS
WILLISTON      CLOUDY    26  23  88 CALM      29.91F FOG
MINOT          CLOUDY    28  25  88 W5        29.90F FOG
MINOT AFB      CLOUDY    27  27 100 NW3       29.91S
$$

NDZ018>021-031>035-040>046-192100-
SOUTHWEST NORTH DAKOTA

CITY           SKY/WX    TMP DP  RH WIND       PRES   REMARKS
BISMARCK       MOSUNNY   37  27  67 CALM      29.92F
DICKINSON      SUNNY     43  29  57 SW10      29.86F
GARRISON         N/A     27  25  92 CALM      29.90F
HETTINGER ARPT SUNNY     41  27  57 W13       29.91F
$$

NDZ004>008-012>016-024-026-027-054-192100-
NORTHEAST NORTH DAKOTA

CITY           SKY/WX    TMP DP  RH WIND       PRES   REMARKS
GRAND FORKS    FOG       27  27 100 S9        30.01F VSB 3/4 WCI  17
GRND FRKS AFB  CLOUDY    27  27 100 S10       30.00F FOG     WCI  17
DEVILS LAKE    CLOUDY    27  19  74 S5        29.92F
$$

NDZ022-023-025-028>030-036>039-047>053-192100-
SOUTHEAST NORTH DAKOTA

CITY           SKY/WX    TMP DP  RH WIND       PRES   REMARKS
FARGO          CLOUDY    31  27  85 S12       30.02F FOG
JAMESTOWN      CLOUDY    30  26  85 S8        29.93F
$$



USA.gov is the U.S. government's official web portal to all federal, state and local government web resources and services.